Location: Richmond
(37.5536°N, 77.4606°W)
Time: 18:24:05
(UTC-04:00)

ISS - Visible Passes

Search period start: 23 September 2014 00:00
Search period end: 03 October 2014 00:00
Orbit: 413 x 416 km, 51.6° (Epoch: 23 September)

Date Brightness Start Highest point End Pass type
(mag) Time Alt. Az. Time Alt. Az. Time Alt. Az.
24 Sep -0.5 06:29:43 10° N 06:31:31 14° NNE 06:33:18 10° NE visible
25 Sep -0.3 05:41:34 10° N 05:42:17 11° NNE 05:43:01 10° NNE visible
26 Sep -1.2 06:27:49 10° NNW 06:30:39 25° NNE 06:33:28 10° E visible
27 Sep -0.7 05:39:09 10° NNW 05:41:29 17° NNE 05:43:48 10° ENE visible
28 Sep -0.4 04:51:56 13° NNE 04:52:13 13° NNE 04:53:50 10° NE visible
28 Sep -2.9 06:26:09 10° NW 06:29:28 64° NE 06:32:45 10° ESE visible
29 Sep -1.8 05:38:13 17° NNW 05:40:22 36° NE 05:43:28 10° ESE visible
30 Sep -0.8 04:51:45 22° NE 04:51:45 22° NE 04:53:54 10° E visible
30 Sep -2.7 06:24:50 10° WNW 06:27:58 39° SW 06:31:05 10° SSE visible
01 Oct -3.4 05:38:20 56° WNW 05:38:56 78° SW 05:42:15 10° SE visible
02 Oct -0.6 04:52:10 17° ESE 04:52:10 17° ESE 04:53:05 10° ESE visible
02 Oct -1.3 06:25:06 12° WSW 06:26:09 13° SW 06:27:48 10° SSW visible
